Regional Weather Roundup
Issued by NWS

Home | Current Version | Previous Version | Text Only | Print | Product List | Glossary Off
Versions: 1 2 3 4 5 6 7 8 9 10 11 12 13 14 15 16 17 18 19 20 21 22 23 24 25 26 27 28 29 30 31 32 33 34 35 36 37 38 39 40 41 42 43 44 45 46 47 48 49 50

000
ASUS45 KABQ 192301
RWRNM
WEATHER ROUNDUP FOR NEW MEXICO
NATIONAL WEATHER SERVICE ALBUQUERQUE NM
500 PM MDT SUN OCT 19 2014

NOTE: "FAIR" MEANS FEW OR NO CLOUDS BELOW 12,000 FEET AGL WITH NO
       SIGNIFICANT WEATHER OR OBSTRUCTIONS TO VISION.

      THIS PRODUCT IS RELEASED AS TWO VERSIONS.  ONE VERSION NEAR
      THE TOP OF THE HOUR CONTAINING PRELIMINARY DATA FROM ALBUQUERQUE
      AND OTHER STATIONS.  A FINAL VERSION WITH ADDITIONAL DATA IS
      ISSUED ABOUT 10 MINUTES AFTER THE HOUR.

NMZ501-503-504-510>518-200000-
NORTHWEST PLATEAU/NORTHCENTRAL MOUNTAINS

CITY           SKY/WX    TMP DP  RH WIND       PRES   REMARKS
FARMINGTON     MOSUNNY   71  41  33 SW10      30.06R
LOS ALAMOS     CLOUDY    61  39  44 S7        30.20S
SANTA FE       PTSUNNY   65  42  43 SW20G26   30.15R
TAOS           CLOUDY    57  39  51 E18       30.20S
ANGEL FIRE     LGT RAIN  47  42  83 NW12      30.31R

$$
NMZ402-403-502-505>509-200000-
WESTCENTRAL MOUNTAINS/SOUTHWEST MOUNTAINS

CITY           SKY/WX    TMP DP  RH WIND       PRES   REMARKS
GALLUP         CLOUDY    52  43  71 E12       30.18F
GRANTS         CLOUDY    57  39  51 N14G26    30.20S
SILVER CITY    MOSUNNY   66  46  48 E15G23    30.06F

$$
NMZ407-409-411-412-200000-
SOUTHERN DESERTS

CITY           SKY/WX    TMP DP  RH WIND       PRES   REMARKS
LORDSBURG      MOCLDY    72  48  43 MISG      29.97S
DEMING         MOSUNNY   69  47  45 NE25G35   29.97F
LAS CRUCES     MOSUNNY   72  48  43 N14       30.01F
T OR C         SUNNY     65  50  58 NE9       30.07F

$$
NMZ519>523-200000-
CENTRAL VALLEYS/CENTRAL HIGHLANDS

CITY           SKY/WX    TMP DP  RH WIND       PRES   REMARKS
ALBUQUERQUE    PTSUNNY   61  44  53 SE7       30.15F
DOUBLE EAGLE   PTSUNNY   61  43  51 S8        30.18S
MORIARTY ARPT  FAIR      62  38  41 W14       30.18R
CLINES CORNERS MOSUNNY   63  42  46 W24G30    30.18R
BELEN          FAIR      60  46  60 SW12      30.13F
SOCORRO        FAIR      63  44  50 CALM      30.10F

$$
NMZ524>526-539-540-200000-
SOUTHCENTRAL MOUNTAINS

CITY           SKY/WX    TMP DP  RH WIND       PRES   REMARKS
RUIDOSO        NOT AVBL

$$
NMZ527>531-200000-
NORTHEAST HIGHLANDS/NORTHEAST PLAINS

CITY           SKY/WX    TMP DP  RH WIND       PRES   REMARKS
LAS VEGAS      CLOUDY    60  39  45 SE5       30.18F
RATON          CLOUDY    69  35  28 CALM      30.13R
CLAYTON        MOSUNNY   70  46  42 S10       30.05S

$$
NMZ532>537-200000-
EASTCENTRAL PLAINS

CITY           SKY/WX    TMP DP  RH WIND       PRES   REMARKS
TUCUMCARI      PTSUNNY   75  48  38 SW15      30.03R
CANNON AFB     CLOUDY    69  54  57 SW10      30.08R
CLOVIS AIRPORT CLOUDY    70  54  56 S12       30.10R

$$
NMZ028-029-538-200000-
SOUTHEAST PLAINS

CITY           SKY/WX    TMP DP  RH WIND       PRES   REMARKS
ROSWELL        MOSUNNY   71  55  56 S7        30.05F
CARLSBAD       MOSUNNY   72  57  59 CALM      30.01F
HOBBS          MOSUNNY   73  55  53 SE6       30.05S


$$



USA.gov is the U.S. government's official web portal to all federal, state and local government web resources and services.